This is the latest recevied weather packets stored in our database for station/object DL1VED. If no packets are shown the sender has not sent any weather packets the latest 10 day(s).
| Time | Temp. | Humidity | Pressure | Rain* | Wind** | Luminosity | Snow |
|---|---|---|---|---|---|---|---|
| 1777625954 | 17.78° C | 23% | 1025.5 hPa | 0 mm | - | - | - |
| 1777625054 | 17.22° C | 24% | 1025.3 hPa | 0 mm | - | - | - |
| 1777624154 | 17.78° C | 26% | 1025.3 hPa | 0 mm | - | - | - |
| 1777623254 | 16.67° C | 28% | 1025.4 hPa | 0 mm | - | - | - |
| 1777622354 | 16.11° C | 31% | 1025.5 hPa | 0 mm | - | - | - |
| 1777621454 | 15° C | 32% | 1025.3 hPa | 0 mm | - | - | - |
| 1777620554 | 15° C | 34% | 1025.3 hPa | 0 mm | - | - | - |
| 1777619654 | 14.44° C | 100% | 1024.4 hPa | 0 mm | - | - | - |
| 1777618755 | 14.44° C | 100% | 1025.1 hPa | 0 mm | - | - | - |
| 1777617854 | 13.33° C | 35% | 1024.3 hPa | 0 mm | - | - | - |
| 1777616954 | 12.78° C | 36% | 1025 hPa | 0 mm | - | - | - |
| 1777616054 | 12.78° C | 39% | 1025.1 hPa | 0 mm | - | - | - |
| 1777615154 | 11.67° C | 37% | 1025.1 hPa | 0 mm | - | - | - |
| 1777614254 | 10.56° C | 39% | 1025.1 hPa | 0 mm | - | - | - |
| 1777613354 | 9.44° C | 41% | 1025.2 hPa | 0 mm | - | - | - |
| 1777612454 | 8.89° C | 45% | 1025.2 hPa | 0 mm | - | - | - |
| 1777611554 | 9.44° C | 45% | 1025.3 hPa | 0 mm | - | - | - |
| 1777610654 | 9.44° C | 41% | 1025.3 hPa | 0 mm | - | - | - |
| 1777609754 | 10° C | 38% | 1025.2 hPa | 0 mm | - | - | - |
| 1777608854 | 10° C | 37% | 1025.1 hPa | 0 mm | - | - | - |
| 1777607954 | 10.56° C | 36% | 1025 hPa | 0 mm | - | - | - |
| 1777607054 | 10.56° C | 35% | 1025 hPa | 0 mm | - | - | - |
| 1777606154 | 10.56° C | 35% | 1025 hPa | 0 mm | - | - | - |
| 1777605254 | 10.56° C | 35% | 1024.8 hPa | 0 mm | - | - | - |
| 1777604354 | 10.56° C | 35% | 1024.8 hPa | 0 mm | - | - | - |
* Rain latest hour (hover to see other rain measurements)
** Current wind speed in m/s (hover to see current wind gust speed)